Weather in Obilnoye

Russia / Republic of Kalmykia     47°30′13″N   44°24′51″E
temp.,
°C
wind,
m/s
gust,
m/s
humid.,
%
clouds,
%
prec.,
mm/h
press.,
hPa
HPBL,
m
1 august, sun
sun100:00+28s33240 0.0 101018
03:00+26sse33270 0.0 101018
06:00+27n22274 0.0 101120
09:00+32ese22180 0.0 1012560
12:00+35ese33150 0.0 10113406
15:00+36e22140 0.0 10103566
18:00+36ne33140 0.0 10093461
21:00+31ne22180 0.0 101012
2 august, mon
mon200:00+29ene22270 0.0 101012
03:00+27ene11340 0.0 101011
06:00+28s33360 0.0 101176
09:00+33s44320 0.1 1012795
12:00+36sse552020 0.0 10112579
15:00+38sse55140 0.0 10103280
18:00+37sse35155 0.0 10103315
21:00+32sse332027 0.0 101020
3 august, tue
tue300:00+30s48215 0.0 1010137
03:00+27ssw22272 0.0 101011
06:00+28sse34280 0.0 101176
09:00+34sse67200 0.0 1011713
12:00+38s67113 0.0 10102743
15:00+39s6790 0.0 10093519
18:00+38s67110 0.0 10082197
21:00+32s48150 0.0 1009102
4 august, wed
wed400:00+30sw47173 0.0 100993
03:00+28sw45215 0.0 100962
06:00+25n8105046 0.0 1010248
09:00+27n5650100 0.4 1011412
12:00+33nne34333 0.3 10111183
15:00+35nw76276 0.3 10112579
18:00+33nw762913 0.0 10121511
21:00+29nnw6103213 0.0 1013325
5 august, thu
thu500:00+26nne5104049 0.0 1014443
03:00+24n49442 0.0 1015236
06:00+24n48467 0.0 1015271
09:00+29nne56335 0.0 10161425
12:00+31n44246 0.0 10152422
15:00+33n3420100 0.0 10142649
18:00+32nne5419100 0.0 10142574
21:00+27ne48265 0.0 1015152